timestamp,surface_pressure_avg,surface_temp_avg,battery_voltage,lat,long
2018-08-03 00:00:00+00:00,259.6264,18.0,13.21,47.84626,-54.09684
2018-08-03 00:10:00+00:00,264.4647,17.93,13.05,47.84626,-54.09684
2018-08-03 00:20:00+00:00,269.4015,17.96,13.13,47.84626,-54.09684
2018-08-03 00:30:00+00:00,272.5447,18.0,13.13,47.84626,-54.09684
2018-08-03 00:40:00+00:00,274.8781,18.07,13.13,47.84626,-54.09684
2018-08-03 00:50:00+00:00,281.998,18.0,13.13,47.84626,-54.09684
2018-08-03 01:00:00+00:00,287.9597,17.9,13.05,47.84626,-54.09684
2018-08-03 01:10:00+00:00,291.3381,17.95,13.05,47.84626,-54.09684
2018-08-03 01:20:00+00:00,296.0514,18.04,13.05,47.84626,-54.09684
2018-08-03 01:30:00+00:00,306.303,18.1,13.05,47.84626,-54.09684
2018-08-03 01:40:00+00:00,315.1246,18.18,13.13,47.84626,-54.09684
2018-08-03 01:50:00+00:00,321.243,18.29,13.13,47.84626,-54.09684
2018-08-03 02:00:00+00:00,323.9263,18.4,13.05,47.84626,-54.09684
2018-08-03 02:10:00+00:00,331.1863,18.4,12.97,47.84626,-54.09684
2018-08-03 02:20:00+00:00,339.6963,18.41,13.05,47.84626,-54.09684
2018-08-03 02:30:00+00:00,341.1563,18.5,13.05,47.84626,-54.09684
2018-08-03 02:40:00+00:00,342.588,18.6,13.05,47.84626,-54.09684
2018-08-03 02:50:00+00:00,343.7546,18.64,13.13,47.84626,-54.09684
2018-08-03 03:00:00+00:00,344.7863,18.74,13.05,47.84626,-54.09684
2018-08-03 03:10:00+00:00,344.2047,18.85,12.97,47.84626,-54.09684
2018-08-03 03:20:00+00:00,345.2613,18.9,13.05,47.84626,-54.09684
2018-08-03 03:30:00+00:00,346.603,18.9,13.05,47.84626,-54.09684
2018-08-03 03:40:00+00:00,345.0714,18.95,13.05,47.84626,-54.09684
2018-08-03 03:50:00+00:00,345.0712,18.99,13.05,47.84626,-54.09684
2018-08-03 04:00:00+00:00,345.4412,19.0,13.05,47.84626,-54.09684
2018-08-03 04:10:00+00:00,345.448,19.07,12.97,47.84626,-54.09684
2018-08-03 04:20:00+00:00,342.6564,19.1,13.05,47.84626,-54.09684
2018-08-03 04:30:00+00:00,339.4696,19.16,13.05,47.84626,-54.09684
2018-08-03 04:40:00+00:00,337.5246,19.2,13.05,47.84626,-54.09684
2018-08-03 04:50:00+00:00,334.8996,19.2,13.05,47.84626,-54.09684
2018-08-03 05:00:00+00:00,333.283,19.2,12.97,47.84626,-54.09684
2018-08-03 05:10:00+00:00,331.6213,19.1,12.89,47.84626,-54.09684
2018-08-03 05:20:00+00:00,327.6313,18.7,12.97,47.84626,-54.09684
2018-08-03 05:30:00+00:00,321.238,18.7,12.97,47.84626,-54.09684
2018-08-03 05:40:00+00:00,316.8864,18.7,13.05,47.84626,-54.09684
2018-08-03 05:50:00+00:00,309.8713,18.79,13.05,47.84626,-54.09684
2018-08-03 06:00:00+00:00,301.523,18.72,12.97,47.84626,-54.09684
2018-08-03 06:10:00+00:00,294.0447,18.61,12.89,47.84626,-54.09684
2018-08-03 06:20:00+00:00,288.7747,18.87,12.97,47.84626,-54.09684
2018-08-03 06:30:00+00:00,280.263,18.98,12.97,47.84626,-54.09684
2018-08-03 06:40:00+00:00,272.0164,19.1,12.97,47.84626,-54.09684
2018-08-03 06:50:00+00:00,263.7064,19.11,12.97,47.84626,-54.09684
2018-08-03 07:00:00+00:00,255.8064,19.1,12.97,47.84626,-54.09684
2018-08-03 07:10:00+00:00,247.0564,19.1,12.89,47.84626,-54.09684
2018-08-03 07:20:00+00:00,241.3364,19.1,12.97,47.84626,-54.09684
2018-08-03 07:30:00+00:00,233.2881,19.1,12.97,47.84626,-54.09684
2018-08-03 07:40:00+00:00,224.2298,19.1,12.97,47.84626,-54.09684
2018-08-03 07:50:00+00:00,220.1714,19.1,12.97,47.84626,-54.09684
2018-08-03 08:00:00+00:00,217.6581,19.1,12.89,47.84626,-54.09684
2018-08-03 08:10:00+00:00,212.3948,19.1,12.81,47.84626,-54.09684
2018-08-03 08:20:00+00:00,208.3281,19.1,12.89,47.84626,-54.09684
2018-08-03 08:30:00+00:00,205.6564,19.1,12.89,47.84626,-54.09684
2018-08-03 08:40:00+00:00,203.0931,19.1,12.97,47.84626,-54.09684
2018-08-03 08:50:00+00:00,201.7648,19.1,12.97,47.84626,-54.09684
2018-08-03 09:00:00+00:00,201.9531,19.1,12.89,47.84626,-54.09684
2018-08-03 09:10:00+00:00,201.7881,19.09,12.81,47.84626,-54.09684
2018-08-03 09:20:00+00:00,203.4498,19.09,12.89,47.84626,-54.09684
2018-08-03 09:30:00+00:00,205.2615,19.09,12.89,47.84626,-54.09684
2018-08-03 09:40:00+00:00,206.2448,19.07,12.97,47.84626,-54.09684
2018-08-03 09:50:00+00:00,209.9832,19.07,12.97,47.84626,-54.09684
2018-08-03 10:00:00+00:00,212.6231,19.0,12.97,47.84626,-54.09684
2018-08-03 10:10:00+00:00,213.9914,19.0,12.89,47.84626,-54.09684
2018-08-03 10:20:00+00:00,218.6498,19.0,12.97,47.84626,-54.09684
2018-08-03 10:30:00+00:00,223.9831,19.0,12.97,47.84626,-54.09684
2018-08-03 10:40:00+00:00,226.9597,19.0,13.05,47.84626,-54.09684
2018-08-03 10:50:00+00:00,228.4497,18.94,13.21,47.84626,-54.09684
2018-08-03 11:00:00+00:00,233.1598,18.8,13.21,47.84626,-54.09684
2018-08-03 11:10:00+00:00,240.1547,18.6,13.21,47.84626,-54.09684
2018-08-03 11:20:00+00:00,242.4031,18.6,13.29,47.84626,-54.09684
2018-08-03 11:30:00+00:00,242.4481,18.66,13.37,47.84626,-54.09684
2018-08-03 11:40:00+00:00,245.9247,18.68,13.44,47.84626,-54.09684
2018-08-03 11:50:00+00:00,252.1214,18.69,13.53,47.84626,-54.09684
2018-08-03 12:00:00+00:00,253.6147,18.65,13.44,47.84626,-54.09684
2018-08-03 12:10:00+00:00,253.7181,18.6,13.53,47.84626,-54.09684
2018-08-03 12:20:00+00:00,257.028,18.6,13.68,47.84626,-54.09684
2018-08-03 12:30:00+00:00,262.8964,18.6,13.68,47.84626,-54.09684
2018-08-03 12:40:00+00:00,264.7681,18.6,13.68,47.84626,-54.09684
2018-08-03 12:50:00+00:00,265.0481,18.6,13.76,47.84626,-54.09684
2018-08-03 13:00:00+00:00,269.0164,18.6,13.84,47.84626,-54.09684
2018-08-03 13:10:00+00:00,272.9864,18.6,14.08,47.84626,-54.09684
2018-08-03 13:20:00+00:00,275.3114,18.56,14.32,47.84626,-54.09684
2018-08-03 13:30:00+00:00,280.868,18.55,15.6,47.84626,-54.09684
2018-08-03 13:40:00+00:00,290.5964,18.63,14.32,47.84626,-54.09684
2018-08-03 13:50:00+00:00,298.268,18.6,14.24,47.84626,-54.09684
2018-08-03 14:00:00+00:00,301.2679,18.5,14.24,47.84626,-54.09684
2018-08-03 14:10:00+00:00,305.0997,18.4,14.64,47.84626,-54.09684
2018-08-03 14:20:00+00:00,314.5781,18.4,14.96,47.84626,-54.09684
2018-08-03 14:30:00+00:00,321.6479,18.2,14.32,47.84626,-54.09684
2018-08-03 14:40:00+00:00,323.898,17.6,14.48,47.84626,-54.09684
2018-08-03 14:50:00+00:00,325.958,17.64,14.4,47.84626,-54.09684
2018-08-03 15:00:00+00:00,331.7131,18.17,14.32,47.84626,-54.09684
2018-08-03 15:10:00+00:00,332.1662,18.22,14.16,47.84626,-54.09684
2018-08-03 15:20:00+00:00,330.368,18.2,14.24,47.84626,-54.09684
2018-08-03 15:30:00+00:00,334.7947,17.88,14.24,47.84626,-54.09684
2018-08-03 15:40:00+00:00,339.0297,18.16,14.32,47.84626,-54.09684
2018-08-03 15:50:00+00:00,338.4763,18.4,14.32,47.84626,-54.09684
2018-08-03 16:00:00+00:00,340.2363,18.0,14.16,47.84626,-54.09684
2018-08-03 16:10:00+00:00,343.173,18.05,14.08,47.84626,-54.09684
2018-08-03 16:20:00+00:00,341.103,18.2,14.24,47.84626,-54.09684
2018-08-03 16:30:00+00:00,338.7396,18.1,14.24,47.84626,-54.09684
2018-08-03 16:40:00+00:00,337.9514,18.01,14.24,47.84626,-54.09684
2018-08-03 16:50:00+00:00,336.1013,18.29,14.24,47.84626,-54.09684
2018-08-03 17:00:00+00:00,332.5947,18.3,14.16,47.84626,-54.09684
2018-08-03 17:10:00+00:00,329.6163,18.1,14.08,47.84626,-54.09684
2018-08-03 17:20:00+00:00,327.7213,18.24,14.08,47.84626,-54.09684
2018-08-03 17:30:00+00:00,324.1896,18.37,14.16,47.84626,-54.09684
2018-08-03 17:40:00+00:00,321.3113,17.92,14.0,47.84626,-54.09684
2018-08-03 17:50:00+00:00,319.3929,17.9,14.0,47.84626,-54.09684
2018-08-03 18:00:00+00:00,313.7113,18.08,13.84,47.84626,-54.09684
2018-08-03 18:10:00+00:00,307.8113,18.1,13.84,47.84626,-54.09684
2018-08-03 18:20:00+00:00,304.2647,17.8,13.84,47.84626,-54.09684
2018-08-03 18:30:00+00:00,299.063,17.88,13.84,47.84626,-54.09684
2018-08-03 18:40:00+00:00,292.3197,18.17,13.84,47.84626,-54.09684
2018-08-03 18:50:00+00:00,286.8113,18.4,13.84,47.84626,-54.09684
2018-08-03 19:00:00+00:00,278.0247,18.5,13.84,47.84626,-54.09684
2018-08-03 19:10:00+00:00,267.0114,18.6,13.68,47.84626,-54.09684
2018-08-03 19:20:00+00:00,262.2914,18.62,13.76,47.84626,-54.09684
2018-08-03 19:30:00+00:00,257.4697,18.64,13.84,47.84626,-54.09684
2018-08-03 19:40:00+00:00,248.1147,18.64,14.0,47.84626,-54.09684
2018-08-03 19:50:00+00:00,240.3247,18.63,14.0,47.84626,-54.09684
2018-08-03 20:00:00+00:00,237.4998,18.6,14.0,47.84626,-54.09684
2018-08-03 20:10:00+00:00,233.3598,18.6,13.84,47.84626,-54.09684
2018-08-03 20:20:00+00:00,224.5764,18.66,13.84,47.84626,-54.09684
2018-08-03 20:30:00+00:00,219.6914,18.65,13.84,47.84626,-54.09684
2018-08-03 20:40:00+00:00,217.5481,18.6,13.76,47.84626,-54.09684
2018-08-03 20:50:00+00:00,213.2348,18.61,13.76,47.84626,-54.09684
2018-08-03 21:00:00+00:00,211.7031,18.69,13.68,47.84626,-54.09684
2018-08-03 21:10:00+00:00,214.3997,18.7,13.53,47.84626,-54.09684
2018-08-03 21:20:00+00:00,214.4014,18.76,13.53,47.84626,-54.09684
2018-08-03 21:30:00+00:00,212.0014,18.9,13.44,47.84626,-54.09684
2018-08-03 21:40:00+00:00,213.3731,18.8,13.44,47.84626,-54.09684
2018-08-03 21:50:00+00:00,219.8398,18.8,13.44,47.84626,-54.09684
2018-08-03 22:00:00+00:00,221.4615,18.9,13.37,47.84626,-54.09684
2018-08-03 22:10:00+00:00,220.9731,19.0,13.21,47.84626,-54.09684
2018-08-03 22:20:00+00:00,224.1364,19.11,13.21,47.84626,-54.09684
2018-08-03 22:30:00+00:00,226.7231,19.45,13.21,47.84626,-54.09684
2018-08-03 22:40:00+00:00,227.8064,19.6,13.21,47.84626,-54.09684
2018-08-03 22:50:00+00:00,230.9231,19.7,13.21,47.84626,-54.09684
2018-08-03 23:00:00+00:00,234.2631,19.7,13.13,47.84626,-54.09684
2018-08-03 23:10:00+00:00,234.1631,19.7,13.05,47.84626,-54.09684
2018-08-03 23:20:00+00:00,233.2514,19.71,13.13,47.84626,-54.09684
2018-08-03 23:30:00+00:00,235.8531,19.73,13.13,47.84626,-54.09684
2018-08-03 23:40:00+00:00,238.373,19.73,13.13,47.84626,-54.09684
2018-08-03 23:50:00+00:00,237.3114,19.7,13.13,47.84626,-54.09684
